Regional Weather Roundup
Issued by NWS New Orleans/Baton Rouge, LA

Home | Current Version | Previous Version | Text Only | Print | Product List | Glossary On
Versions: 1 2 3 4 5 6 7 8 9 10 11 12 13 14 15 16 17 18 19 20 21 22 23 24 25 26 27 28 29 30 31 32 33 34 35 36 37 38 39 40 41 42 43 44 45 46 47 48 49 50
000
ASUS44 KLIX 010711
RWRLIX
NEW ORLEANS REGIONAL WEATHER ROUNDUP
NATIONAL WEATHER SERVICE NEW ORLEANS LA
200 AM CDT WED JUL 01 2015

NOTE: "FAIR" INDICATES FEW OR NO CLOUDS BELOW 12,000 FEET WITH NO
      SIGNIFICANT WEATHER AND/OR OBSTRUCTIONS TO VISIBILITY.
      SKY/WX - SKY CONDITION AND SIGNIFICANT WEATHER.
      TMP - AIR TEMPERATURE.     DP    - DEWPOINT TEMPERATURE.
      RH  - RELATIVE HUMIDITY.   PRES  - PRESSURE.
      HI  - HEAT INDEX.          WCI   - WIND CHILL INDEX.

*  THESE STATIONS ARE NOT NWS OR FAA STATIONS AND ARE NOT UNDER
   NWS QUALITY CONTROL.

LAZ038-040-048-061>063-065>067-069-010800-
SOUTHEAST LOUISIANA

CITY           SKY/WX    TMP DP  RH WIND       PRES   REMARKS
N.O. AUDUBON     N/A     76  73  88 MISG        N/A
N.O. INTL ARPT CLOUDY    75  69  81 S7        30.08S
N.O. LAKEFRONT CLOUDY    78  69  73 S8        30.08S
N.O. DOWNTOWN*   N/A     79  68  69 CALM      30.09S
RESERVE*         N/A    N/A N/A N/A CALM      30.07F
SLIDELL        CLOUDY    72  71  97 CALM      30.07F
BATON ROUGE    MOCLDY    72  71  97 CALM      30.08F
BOOTHVILLE     CLOUDY    80  73  79 SE8       30.06F
BELLE CHASSE   CLOUDY    73  70  90 CALM      30.07F
BOGALUSA*        N/A     72  67  84 CALM      30.09F
GALLIANO*      CLOUDY    75  72  90 NW6       30.10R
NEW ROADS*       N/A    N/A N/A N/A CALM      30.08F
GONZALES*        N/A     73  72  99 CALM      30.07F
HAMMOND*       CLOUDY    72  68  88 CALM      30.09S
HOUMA*         CLOUDY    73  72  98 CALM      30.09S
PORT FOURCHON* SUNNY     81  70  69 SE9G16    30.07F

$$

MSZ070-080>082-010800-
SOUTHERN MISSISSIPPI

CITY           SKY/WX    TMP DP  RH WIND       PRES   REMARKS
MCCOMB         PTCLDY    68  68 100 S5        30.07F
GULFPORT       CLOUDY    73  68  84 CALM      30.08F
BILOXI         CLOUDY    76  70  80 W5        30.07F
PASCAGOULA     MOCLDY    74  70  87 CALM      30.08F

$$

COASTAL OBSERVATIONS
LAKE AND NEARSHORE STATIONS

STATION/POSITION TIME  TEMP    WIND        PRES    WAVE
                       AIR SEA DIR/SP/G            HT/PER
                 (UTC) (F)     (DEG/KT/KT) (MB)    (FT/S)
PASCAGOULA       0600   78     320/  5/  6 1019.2
WAVELAND YACHT   0600   76 83  260/  3/  3 1019.7
GRAND ISLE       0600   79 84  150/  8/ 13 1018.3
SOUTHWEST PASS   0600   77 83  310/  6/  9 1021.0
NEW CANAL        0600   76 84  170/  2/  4 1017.7
SHELL BEACH      0600   76 83  190/  3/  4 1018.6

OFFSHORE STATIONS

STATION/POSITION TIME  TEMP    WIND        PRES    WAVE
                       AIR SEA DIR/SP/G            HT/PER
                 (UTC) (F)     (DEG/KT/KT) (MB)    (FT/S)
64 S DAUPHIN ISL 0650   80 85  260/ 25/ 31 1020.0    4/ 4

$$




USA.gov is the U.S. government's official web portal to all federal, state and local government web resources and services.